TimeMDT,TemperatureF,Dew PointF,Humidity,Sea Level PressureIn,VisibilityMPH,Wind Direction,Wind SpeedMPH,Gust SpeedMPH,PrecipitationIn,Events,Conditions,WindDirDegrees,DateUTC
12:53 AM,39.0,30.9,73,29.91,10.0,Calm,Calm,-,N/A,,Mostly Cloudy,0,2013-04-03 06:53:00
1:53 AM,45.0,28.9,53,29.86,10.0,Calm,Calm,-,N/A,,Mostly Cloudy,0,2013-04-03 07:53:00
2:53 AM,44.1,28.9,55,29.85,10.0,West,4.6,-,N/A,,Overcast,260,2013-04-03 08:53:00
3:53 AM,37.0,30.0,76,29.85,10.0,Calm,Calm,-,N/A,,Partly Cloudy,0,2013-04-03 09:53:00
4:53 AM,35.1,28.9,78,29.85,10.0,WNW,3.5,-,N/A,,Clear,290,2013-04-03 10:53:00
5:53 AM,33.1,28.9,85,29.85,10.0,Calm,Calm,-,N/A,,Clear,0,2013-04-03 11:53:00
6:53 AM,36.0,30.0,79,29.86,10.0,WSW,4.6,-,N/A,,Clear,240,2013-04-03 12:53:00
7:53 AM,41.0,30.9,67,29.88,10.0,West,11.5,-,N/A,,Clear,270,2013-04-03 13:53:00
8:53 AM,48.0,36.0,63,29.91,10.0,West,10.4,-,N/A,,Clear,260,2013-04-03 14:53:00
9:53 AM,51.1,37.0,59,29.94,10.0,NW,12.7,-,N/A,,Clear,310,2013-04-03 15:53:00
10:10 AM,48.2,35.6,62,29.92,10.0,NNW,17.3,24.2,N/A,,Partly Cloudy,340,2013-04-03 16:10:00
10:53 AM,45.0,36.0,71,30.02,10.0,North,13.8,-,N/A,,Mostly Cloudy,350,2013-04-03 16:53:00
11:53 AM,44.1,34.0,68,30.08,10.0,North,20.7,-,N/A,,Mostly Cloudy,10,2013-04-03 17:53:00
12:53 PM,48.0,35.1,61,30.08,10.0,NNE,15.0,25.3,N/A,,Overcast,20,2013-04-03 18:53:00
1:53 PM,48.0,32.0,54,30.12,10.0,North,12.7,-,N/A,,Overcast,10,2013-04-03 19:53:00
2:53 PM,50.0,30.9,48,30.14,10.0,North,12.7,-,N/A,,Partly Cloudy,10,2013-04-03 20:53:00
3:53 PM,48.0,28.9,48,30.17,10.0,North,17.3,-,N/A,,Scattered Clouds,350,2013-04-03 21:53:00
4:53 PM,46.0,25.0,44,30.19,10.0,North,17.3,-,N/A,,Mostly Cloudy,350,2013-04-03 22:53:00
5:53 PM,45.0,24.1,44,30.20,10.0,NNW,16.1,-,N/A,,Overcast,330,2013-04-03 23:53:00
6:53 PM,42.1,23.0,47,30.21,10.0,North,11.5,-,N/A,,Scattered Clouds,350,2013-04-04 00:53:00
7:53 PM,39.9,21.0,47,30.21,10.0,Calm,Calm,-,N/A,,Clear,0,2013-04-04 01:53:00
8:53 PM,36.0,23.0,59,30.22,10.0,Variable,3.5,-,N/A,,Clear,0,2013-04-04 02:53:00
9:53 PM,36.0,24.1,62,30.23,10.0,NNE,3.5,-,N/A,,Overcast,20,2013-04-04 03:53:00
10:53 PM,35.1,26.1,70,30.25,10.0,Calm,Calm,-,N/A,,Overcast,0,2013-04-04 04:53:00
11:53 PM,34.0,28.0,79,30.25,10.0,Calm,Calm,-,N/A,,Overcast,0,2013-04-04 05:53:00